Content
SEND FEEDBACK

Daily
Averages
Monthly
Summary
United States of America

GOLETA, CALIFORNIA


Home > North America > United States > California
Elevation: 14 feet     Latitude: 34 26N     Longitude: 119 50W

WEATHER
 
SELECT A DAY
Number of Records: 194,152;   Date Range: 1/1/95 - 11/24/14
 
SHARE

PRINT THIS DATA

[ ← Previous Day ]
WEATHER ALMANAC - FEBRUARY 13, 2013
[ Next Day → ]
[ °C ]   °F
Weather ElementAverageHighLow
Temperature51 °F61 °F (12:53 pm)37.9 °F (6:53 am)
Dewpoint42.1 °F48 °F (9:53 am)34 °F (4:53 am)
Humidity72.8 %86 % (1:53 am)47 % (4:53 pm)
Barometer30.19 in30.26 in (9:53 am)30.13 in (5:53 pm)
Wind Speed2.6 mph9.2 mph (2:53 pm)
Weather ElementAverage
Visibility9.1 mi
Wind DirectionENE (84.1 °)

Weather ElementTotal
Precipitation---
Heating Degree Days15.6 (Base 65)
Averaged from 22 records on February 13, 2013
WEATHER CONDITIONS BREAKOUT
WIND DIRECTION BREAKOUT
WEATHER BY HOUR - FEBRUARY 13, 2013
[ °C ]   °F
Local TimeTemperatureDewpointHumidityBarometerVisibilityWind DirectionWind SpeedGust SpeedPrecipitationEventsConditions
1:53 AM39.9 °F36.0 °F86 %30.25 in10.0 miCalmClear
2:53 AM41.0 °F36.0 °F82 %30.24 in10.0 miCalmClear
4:53 AM39.0 °F34.0 °F82 %30.23 in10.0 miCalmClear
5:53 AM39.0 °F34.0 °F82 %30.23 in10.0 miCalmClear
6:53 AM37.9 °F34.0 °F86 %30.24 in9.0 miCalmClear
7:53 AM44.1 °F37.9 °F79 %30.25 in8.0 miCalmClear
8:53 AM55.0 °F43.0 °F64 %30.25 in9.0 miCalmClear
9:53 AM57.0 °F48.0 °F72 %30.26 in8.0 miSE (130°)4.6 mphClear
10:53 AM57.9 °F46.0 °F65 %30.26 in9.0 miSSE (150°)5.8 mphClear
11:53 AM60.1 °F46.0 °F60 %30.23 in10.0 miSE (140°)5.8 mphClear
12:53 PM61.0 °F44.1 °F54 %30.20 in10.0 miWSW (250°)5.8 mphClear
1:53 PM61.0 °F48.0 °F62 %30.17 in10.0 miWSW (240°)8.1 mphClear
2:53 PM60.1 °F46.9 °F62 %30.16 in9.0 miWSW (250°)9.2 mphClear
3:53 PM61.0 °F46.0 °F58 %30.15 in10.0 miWSW (250°)6.9 mphClear
4:53 PM60.1 °F39.9 °F47 %30.14 in10.0 miWest (260°)3.5 mphClear
5:53 PM54.0 °F45.0 °F72 %30.13 in8.0 miSSE (150°)3.5 mphClear
6:53 PM54.0 °F48.0 °F80 %30.13 in8.0 miCalmClear
7:53 PM51.1 °F44.1 °F77 %30.13 in8.0 miCalmClear
8:53 PM48.0 °F42.1 °F80 %30.14 in10.0 miCalmClear
9:53 PM46.9 °F42.1 °F83 %30.15 in8.0 miCalmClear
10:53 PM46.9 °F43.0 °F86 %30.15 in7.0 miNNE (30°)3.5 mphClear
11:53 PM46.0 °F41.0 °F83 %30.16 in9.0 miCalmClear
Hourly data recorded from KSBA, located miles away from Goleta, California







STORIES FROM OUR PARTNERS